Location: Kuppenheim
(48.8299°N, 8.2568°E)
Time: 04:31:04
(UTC+00:00)

NOSS 2-2 (C) - Visible Passes

Search period start: 17 October 2021 00:00
Search period end: 27 October 2021 00:00
Orbit: 451 x 1756 km, 63.3° (Epoch: 15 October)

Date Brightness Start Highest point End Pass type
(mag) Time Alt. Az. Time Alt. Az. Time Alt. Az.
17 Oct 6.5 01:47:35 15° NNE 01:47:35 15° NNE 01:49:58 10° NE visible
17 Oct 5.3 03:34:58 15° NNW 03:38:41 41° NE 03:44:53 10° ESE visible
18 Oct 5.7 02:50:58 23° N 02:52:54 29° NE 02:58:17 10° E visible
18 Oct 4.3 04:38:44 10° NW 04:43:54 76° SW 04:51:12 10° SSE visible
19 Oct 6.1 02:07:00 22° NNE 02:07:01 22° NNE 02:11:29 10° ENE visible
19 Oct 4.5 03:54:24 18° NW 03:58:17 73° NE 04:05:21 10° SE visible
20 Oct 6.8 01:23:06 14° NE 01:23:06 14° NE 01:24:33 10° ENE visible
20 Oct 5.0 03:10:31 32° NNW 03:12:37 50° NE 03:19:10 10° ESE visible
20 Oct 5.0 04:58:16 10° NW 05:03:22 41° WSW 05:10:16 10° S visible
21 Oct 5.4 02:26:41 35° NNE 02:26:53 35° NE 02:32:42 10° ESE visible
21 Oct 4.4 04:14:05 21° NW 04:17:47 62° SW 04:25:02 10° SSE visible
22 Oct 6.4 01:42:57 21° ENE 01:42:57 21° ENE 01:45:59 10° E visible
22 Oct 4.2 03:30:22 46° NW 03:32:10 89° NE 03:39:24 10° SE visible
22 Oct 5.8 05:18:23 10° WNW 05:22:43 21° WSW 05:28:04 10° SSW visible
23 Oct 4.6 02:46:43 61° NE 02:46:43 61° NE 02:53:23 10° SE visible
23 Oct 5.2 04:34:09 20° WNW 04:37:13 33° WSW 04:43:44 10° S visible
24 Oct 6.0 02:03:11 29° E 02:03:11 29° E 02:07:03 10° ESE visible
24 Oct 4.6 03:50:37 45° W 03:51:39 50° SW 03:58:46 10° SSE visible
25 Oct 7.0 01:19:45 13° E 01:19:45 13° E 01:20:27 10° E visible
25 Oct 4.6 03:07:11 60° SSE 03:07:11 60° SSE 03:13:19 10° SSE visible
25 Oct 5.9 04:54:37 15° W 04:56:30 17° WSW 05:00:53 10° SSW visible
26 Oct 5.9 02:23:51 30° SE 02:23:51 30° SE 02:27:30 10° SE visible
26 Oct 5.5 04:11:17 26° WSW 04:11:17 26° WSW 04:17:01 10° S visible
26 Oct 5.2 18:05:31 10° S 18:06:09 14° SSE 18:06:09 14° SSE visible
